Location: South Tamworth Observatory
(43.8246°N, 71.3026°W)
Time: 00:02:20
(UTC-04:00)

Amateur Radio Satellites - All Passes

Search period start: 14 September 2014 23:32
Search period end: 15 September 2014 23:32
Location: South Tamworth Observatory, 43.8246°N, 71.3026°W

Satellite Date Start Highest point End Downlink Frequencies (MHz)
Time Altitude Azimuth
SO-50 15 Sep 00:50:25 00:54:37 38° 313° (NW) 00:58:56 436.795 FM
KITSAT 1 15 Sep 01:10:37 01:14:42 14° 358° (N) 01:18:47 435.175 FM
UOSAT-12 15 Sep 01:17:07 01:21:29 43° 118° (ESE) 01:25:57 437.025 FM, 437.400 FM
Oscar 16 15 Sep 01:24:25 01:28:26 22° 93° (E) 01:32:25 437.025 USB, Beacon 2401.1428
Saudisat 1A 15 Sep 01:34:39 01:37:16 15° 35° (NE) 01:39:53 436.775 MHz
ITAMSAT 1 15 Sep 01:57:05 02:00:41 19° 92° (E) 02:04:17 435.822 SSB
Uribyol 2 15 Sep 02:02:21 02:06:24 22° 93° (E) 02:10:25 436.500 FM
JAS-1B 15 Sep 02:07:00 02:11:48 25° 93° (E) 02:16:25 435.800 - 435.900 CW/SSB
AO-Echo 15 Sep 02:19:28 02:23:48 33° 97° (E) 02:28:12 ?
Oscar 19 15 Sep 02:24:58 02:30:11 77° 103° (ESE) 02:35:19 437.125 CW, 437.150 USB
AO-27 15 Sep 02:29:47 02:34:37 37° 97° (E) 02:39:26 436.795 MHz FM
Gurwin Techsat 1B 15 Sep 02:53:01 02:57:40 30° 95° (E) 03:02:16 435.225 FM
UOSAT-12 15 Sep 02:57:45 03:01:48 28° 317° (NW) 03:05:54 437.025 FM, 437.400 FM
Oscar 16 15 Sep 03:03:03 03:08:02 48° 290° (WNW) 03:12:59 437.025 USB, Beacon 2401.1428
KITSAT 1 15 Sep 03:07:44 03:13:47 22° 28° (NNE) 03:19:49 435.175 FM
Saudisat 1A 15 Sep 03:13:06 03:17:32 84° 55° (NE) 03:21:57 436.775 MHz
OPAL 15 Sep 03:15:42 03:19:37 22° 60° (ENE) 03:23:35 ?
TMSAT-1 15 Sep 03:33:10 03:38:20 50° 100° (E) 03:43:28 436.925 FM
ITAMSAT 1 15 Sep 03:35:27 03:40:34 58° 289° (WNW) 03:45:40 435.822 SSB
Uribyol 2 15 Sep 03:41:06 03:46:07 49° 290° (WNW) 03:51:08 436.500 FM
AO-7 15 Sep 03:51:12 03:57:21 22° 91° (E) 04:03:26 29.400 - 29.500 MHz
JAS-1B 15 Sep 03:57:11 04:02:49 44° 293° (WNW) 04:08:08 435.800 - 435.900 CW/SSB
AO-Echo 15 Sep 03:58:25 04:02:30 29° 293° (WNW) 04:06:39 ?
RS-15 15 Sep 04:04:21 04:13:39 33° 106° (ESE) 04:22:48 29.354 - 29.394 USB, Beacon 29.352 USB
Oscar 19 15 Sep 04:05:51 04:08:53 16° 301° (WNW) 04:11:54 437.125 CW, 437.150 USB
ISS 15 Sep 04:06:52 04:09:35 24° 136° (SE) 04:12:20 145.800 FM
AO-27 15 Sep 04:09:32 04:14:01 30° 295° (WNW) 04:18:29 436.795 MHz FM
Gurwin Techsat 1B 15 Sep 04:32:48 04:37:41 38° 292° (WNW) 04:42:32 435.225 FM
OPAL 15 Sep 04:53:05 04:58:07 54° 257° (WSW) 05:03:15 ?
Saudisat 1A 15 Sep 04:55:09 04:56:26 11° 252° (WSW) 04:57:43 436.775 MHz
KITSAT 1 15 Sep 05:02:50 05:10:54 66° 53° (NE) 05:18:54 435.175 FM
Uosat F 15 Sep 05:03:13 05:08:12 62° 102° (ESE) 05:13:10 435.120 FM
JAS-2 15 Sep 05:05:11 05:07:09 12° 88° (E) 05:09:11 435.800 - 435.900 CW/SSB, 435.910 FM
TMSAT-1 15 Sep 05:13:48 05:17:55 24° 297° (WNW) 05:22:02 436.925 FM
STRAND 1 15 Sep 05:27:16 05:30:55 20° 62° (ENE) 05:34:34 ?
AO-7 15 Sep 05:42:41 05:51:00 82° 291° (WNW) 05:59:17 29.400 - 29.500 MHz
ISS 15 Sep 05:42:52 05:46:08 52° 334° (NNW) 05:49:24 145.800 FM
SO-50 15 Sep 06:01:39 06:02:40 11° 27° (NNE) 06:03:41 436.795 FM
RS-15 15 Sep 06:14:01 06:25:02 74° 308° (NW) 06:36:01 29.354 - 29.394 USB, Beacon 29.352 USB
Hamsat 15 Sep 06:19:23 06:23:29 43° 98° (E) 06:27:31 145.90 MHz
Uosat F 15 Sep 06:43:08 06:46:30 18° 299° (WNW) 06:49:52 435.120 FM
JAS-2 15 Sep 06:47:08 06:52:53 80° 104° (ESE) 06:59:24 435.800 - 435.900 CW/SSB, 435.910 FM
KITSAT 1 15 Sep 06:58:57 07:05:45 31° 253° (WSW) 07:12:31 435.175 FM
STRAND 1 15 Sep 07:04:42 07:09:41 56° 259° (W) 07:14:43 ?
ISS 15 Sep 07:20:42 07:23:23 22° 353° (N) 07:26:03 145.800 FM
AO-7 15 Sep 07:36:53 07:42:36 21° 312° (NW) 07:48:20 29.400 - 29.500 MHz
SO-50 15 Sep 07:39:57 07:44:30 41° 48° (NE) 07:49:06 436.795 FM
Hamsat 15 Sep 07:56:08 07:59:08 19° 295° (WNW) 08:02:07 145.90 MHz
UOSAT-12 15 Sep 08:06:38 08:08:48 13° 30° (NNE) 08:10:57 437.025 FM, 437.400 FM
SO-67 15 Sep 08:08:31 08:11:58 68° 284° (WNW) 08:15:23 435.3500 MHz FM
HO-68 15 Sep 08:12:20 08:15:25 13° 86° (E) 08:18:30 435.675 MHz FM
RS-15 15 Sep 08:30:20 08:39:37 30° 337° (NNW) 08:49:00 29.354 - 29.394 USB, Beacon 29.352 USB
JAS-2 15 Sep 08:33:50 08:37:29 18° 300° (WNW) 08:41:21 435.800 - 435.900 CW/SSB, 435.910 FM
MaSat-1 15 Sep 08:40:37 08:44:30 23° 105° (ESE) 08:48:24 437.345 MHz
ISS 15 Sep 08:57:59 09:00:51 26° 14° (NNE) 09:03:42 145.800 FM
SO-50 15 Sep 09:20:49 09:24:56 29° 246° (WSW) 09:29:05 436.795 FM
UKube-1 15 Sep 09:23:25 09:26:26 18° 93° (E) 09:29:26 145.840 MHz, 145.915 MHz
UOSAT-12 15 Sep 09:45:19 09:50:00 56° 51° (NE) 09:54:35 437.025 FM, 437.400 FM
HO-68 15 Sep 09:57:04 10:04:16 75° 105° (ESE) 10:11:27 435.675 MHz FM
MaSat-1 15 Sep 10:16:07 10:21:02 51° 302° (WNW) 10:25:55 437.345 MHz
FUNcube-1 15 Sep 10:23:37 10:27:30 26° 94° (E) 10:31:21 145.950 - 145.970 MHz USB
ISS 15 Sep 10:34:33 10:37:54 88° 213° (SSW) 10:41:13 145.800 FM
Oscar 11 15 Sep 10:46:46 10:51:08 79° 285° (WNW) 10:55:28 145.825 FM, Beacon 2401.500 USB
RS-15 15 Sep 10:47:51 10:56:39 26° 13° (NNE) 11:05:35 29.354 - 29.394 USB, Beacon 29.352 USB
UKube-1 15 Sep 10:58:42 11:02:50 44° 290° (WNW) 11:06:58 145.840 MHz, 145.915 MHz
UOSAT-12 15 Sep 11:26:23 11:29:44 20° 249° (WSW) 11:33:03 437.025 FM, 437.400 FM
HO-68 15 Sep 11:45:49 11:51:18 25° 304° (NW) 11:56:47 435.675 MHz FM
MaSat-1 15 Sep 11:58:06 11:58:57 10° 321° (NW) 11:59:48 437.345 MHz
FUNcube-1 15 Sep 11:59:43 12:03:55 35° 291° (WNW) 12:08:05 145.950 - 145.970 MHz USB
Sapphire 15 Sep 12:01:38 12:04:02 13° 103° (ESE) 12:06:25 437.095 MHz 1200 baud AX-25 AFSK
Oscar 19 15 Sep 12:06:08 12:09:34 18° 60° (ENE) 12:13:00 437.125 CW, 437.150 USB
ISS 15 Sep 12:12:44 12:14:08 12° 229° (SW) 12:15:32 145.800 FM
PCSat 15 Sep 12:26:57 12:31:14 25° 108° (ESE) 12:35:33 145.825 MHz
Oscar 16 15 Sep 12:42:28 12:47:12 37° 68° (ENE) 12:51:58 437.025 USB, Beacon 2401.1428
JAS-1B 15 Sep 12:51:34 12:59:12 36° 64° (ENE) 13:05:47 435.800 - 435.900 CW/SSB
RS-15 15 Sep 13:01:27 13:12:15 54° 44° (NE) 13:23:23 29.354 - 29.394 USB, Beacon 29.352 USB
ITAMSAT 1 15 Sep 13:16:10 13:20:44 33° 66° (ENE) 13:25:19 435.822 SSB
TMSAT-1 15 Sep 13:18:58 13:21:26 14° 57° (ENE) 13:23:55 436.925 FM
Uribyol 2 15 Sep 13:21:23 13:26:08 38° 68° (ENE) 13:30:54 436.500 FM
AO-Echo 15 Sep 13:33:51 13:38:28 50° 71° (ENE) 13:43:01 ?
Sapphire 15 Sep 13:41:13 13:46:38 89° 300° (WNW) 13:52:06 437.095 MHz 1200 baud AX-25 AFSK
Oscar 19 15 Sep 13:43:13 13:48:22 67° 258° (WSW) 13:53:34 437.125 CW, 437.150 USB
AO-27 15 Sep 13:49:14 13:54:20 65° 72° (ENE) 13:59:29 436.795 MHz FM
PCSat 15 Sep 14:09:02 14:14:18 52° 306° (NW) 14:19:38 145.825 MHz
Gurwin Techsat 1B 15 Sep 14:15:19 14:20:27 53° 71° (ENE) 14:25:37 435.225 FM
Oscar 16 15 Sep 14:22:07 14:26:36 29° 265° (W) 14:31:07 437.025 USB, Beacon 2401.1428
JAS-1B 15 Sep 14:40:47 14:49:33 56° 259° (W) 14:56:59 435.800 - 435.900 CW/SSB
Uosat F 15 Sep 14:42:14 14:44:43 14° 58° (ENE) 14:47:12 435.120 FM
AO-7 15 Sep 14:51:28 14:58:51 37° 58° (ENE) 15:06:13 29.400 - 29.500 MHz
TMSAT-1 15 Sep 14:55:17 15:00:34 87° 75° (ENE) 15:05:54 436.925 FM
ITAMSAT 1 15 Sep 14:55:33 15:00:11 33° 264° (W) 15:04:51 435.822 SSB
Uribyol 2 15 Sep 15:01:17 15:05:41 28° 265° (W) 15:10:07 436.500 FM
RS-15 15 Sep 15:14:05 15:24:38 52° 248° (WSW) 15:35:37 29.354 - 29.394 USB, Beacon 29.352 USB
AO-Echo 15 Sep 15:14:14 15:17:32 18° 268° (W) 15:20:48 ?
Sapphire 15 Sep 15:27:06 15:30:50 19° 321° (NW) 15:34:36 437.095 MHz 1200 baud AX-25 AFSK
AO-27 15 Sep 15:31:07 15:34:19 16° 270° (W) 15:37:32 436.795 MHz FM
PCSat 15 Sep 15:56:44 15:59:02 13° 328° (NNW) 16:01:20 145.825 MHz
Gurwin Techsat 1B 15 Sep 15:56:47 16:00:44 21° 268° (W) 16:04:42 435.225 FM
Uosat F 15 Sep 16:17:49 16:22:49 84° 256° (WSW) 16:27:51 435.120 FM
TMSAT-1 15 Sep 16:39:11 16:41:11 12° 273° (W) 16:43:12 436.925 FM
AO-7 15 Sep 16:43:12 16:51:19 56° 257° (WSW) 16:59:28 29.400 - 29.500 MHz
Oscar 10/S400 15 Sep 17:01:23 17:18:18 39° 151° (SSE) 17:50:41 145.825 - 145.975 CW/USB, Beacon 145.810 USB
OPAL 15 Sep 17:01:48 17:06:33 35° 99° (E) 17:11:13 ?
JAS-2 15 Sep 17:02:06 17:06:55 36° 68° (ENE) 17:11:36 435.800 - 435.900 CW/SSB, 435.910 FM
Hamsat 15 Sep 17:13:51 17:17:52 37° 70° (ENE) 17:21:53 145.90 MHz
Saudisat 1A 15 Sep 17:22:35 17:25:10 15° 110° (ESE) 17:27:46 436.775 MHz
MaSat-1 15 Sep 18:31:56 18:35:56 49° 58° (ENE) 18:39:21 437.345 MHz
OPAL 15 Sep 18:40:46 18:45:21 32° 297° (WNW) 18:49:52 ?
SO-67 15 Sep 18:42:33 18:45:51 44° 74° (ENE) 18:49:10 435.3500 MHz FM
HO-68 15 Sep 18:43:50 18:47:17 14° 48° (NE) 18:50:44 435.675 MHz FM
JAS-2 15 Sep 18:47:32 18:52:08 28° 265° (W) 18:56:36 435.800 - 435.900 CW/SSB, 435.910 FM
Hamsat 15 Sep 18:50:35 18:53:56 21° 267° (W) 18:57:18 145.90 MHz
Saudisat 1A 15 Sep 18:59:53 19:04:15 63° 307° (NW) 19:08:39 436.775 MHz
STRAND 1 15 Sep 19:13:52 19:18:46 44° 99° (E) 19:23:39 ?
KITSAT 1 15 Sep 19:33:04 19:40:13 36° 109° (ESE) 19:47:23 435.175 FM
MaSat-1 15 Sep 20:10:28 20:12:03 12° 260° (W) 20:13:32 437.345 MHz
Oscar 11 15 Sep 20:10:30 20:11:38 11° 59° (ENE) 20:12:47 145.825 FM, Beacon 2401.500 USB
SO-67 15 Sep 20:18:05 20:19:08 11° 270° (W) 20:20:11 435.3500 MHz FM
UKube-1 15 Sep 20:20:28 20:23:37 20° 64° (ENE) 20:26:46 145.840 MHz, 145.915 MHz
HO-68 15 Sep 20:26:38 20:33:39 64° 68° (ENE) 20:40:42 435.675 MHz FM
Saudisat 1A 15 Sep 20:42:46 20:44:43 13° 328° (NNW) 20:46:41 436.775 MHz
Sapphire 15 Sep 20:45:24 20:49:18 20° 40° (NE) 20:53:11 437.095 MHz 1200 baud AX-25 AFSK
STRAND 1 15 Sep 20:53:35 20:57:43 25° 296° (WNW) 21:01:52 ?
PCSat 15 Sep 21:12:31 21:17:17 30° 47° (NE) 21:22:00 145.825 MHz
FUNcube-1 15 Sep 21:21:39 21:25:10 24° 66° (ENE) 21:28:46 145.950 - 145.970 MHz USB
KITSAT 1 15 Sep 21:27:20 21:35:17 58° 309° (NW) 21:43:16 435.175 FM
Oscar 11 15 Sep 21:42:46 21:47:08 85° 257° (WSW) 21:51:32 145.825 FM, Beacon 2401.500 USB
UKube-1 15 Sep 21:55:26 21:59:32 42° 261° (W) 22:03:40 145.840 MHz, 145.915 MHz
HO-68 15 Sep 22:16:07 22:21:50 26° 267° (W) 22:27:36 435.675 MHz FM
Sapphire 15 Sep 22:27:58 22:33:26 86° 240° (WSW) 22:38:52 437.095 MHz 1200 baud AX-25 AFSK
PCSat 15 Sep 22:55:42 23:00:54 48° 246° (WSW) 23:06:04 145.825 MHz
FUNcube-1 15 Sep 22:57:25 23:01:23 34° 264° (W) 23:05:29 145.950 - 145.970 MHz USB
